Change the Weather History Date:

Sunday, December 22, 2013

  Actual Average Record
Temperature  
Mean Temperature 23 °F 27 °F  
Max Temperature 35 °F 40 °F 72 °F (1933)
Min Temperature 10 °F 14 °F -27 °F (1989)
Degree Days  
Heating Degree Days 42    
Moisture  
Dew Point 14 °F    
Average Humidity 72    
Maximum Humidity 92    
Minimum Humidity 42    
Precipitation  
Precipitation T in 0.03 in 0.29 in (1966)
Month to date precipitation T 0.47  
Year to date precipitation 12.61 22.36  
Sea Level Pressure  
Sea Level Pressure 30.21 in    
Wind  
Wind Speed 7 mph (NNE)    
Max Wind Speed 17 mph    
Max Gust Speed -    
Visibility 7 miles    
Events Snow    
T = Trace of Precipitation, MM = Missing Value Source: NWS Daily Summary

Daily Weather History Graph

Daily Weather History Graph

Search for Another Location

Airport or City:

Trip Planner

Search our weather history database for the weather conditions in past years. The results will help you decide how hot, cold, wet, or windy it might be!

Date:

Astronomy

Dec. 22, 2013 Rise Set
Actual Time 8:01 AM CST 5:20 PM CST
Civil Twilight 7:31 AM CST 5:51 PM CST
Nautical Twilight 6:57 AM CST 6:25 PM CST
Astronomical Twilight 6:23 AM CST 6:58 PM CST
Moon 10:35 PM CST (12/22) 10:58 AM CST (12/22)
Length of Visible Light 10h 19m
Length of Day
9h 18m
Waning Gibbous, 76% of the Moon is Illuminated
Dec 22
Waning Gibbous
Dec 25
Last Quarter
Jan 1
New
Jan 7
First Quarter
Jan 15
Full

Hourly Weather History & Observations

Time (CST) Temp. Windchill Dew Point Humidity Pressure Visibility Wind Dir Wind Speed Gust Speed Precip Events Conditions
12:53 AM 18.0 °F 9.8 °F 12.9 °F 81% 30.00 in 10.0 mi North 5.8 mph - N/A   Overcast
1:53 AM 19.9 °F 14.9 °F 12.9 °F 74% 30.03 in 10.0 mi North 3.5 mph - N/A   Overcast
2:53 AM 19.0 °F - 12.9 °F 77% 30.06 in 10.0 mi Calm Calm - N/A   Overcast
3:53 AM 17.1 °F 11.7 °F 12.0 °F 81% 30.09 in 10.0 mi WNW 3.5 mph - N/A   Clear
4:53 AM 15.1 °F 4.2 °F 10.0 °F 80% 30.11 in 10.0 mi NNW 8.1 mph - N/A   Clear
5:53 AM 12.9 °F 1.6 °F 9.0 °F 84% 30.14 in 10.0 mi WNW 8.1 mph - N/A   Partly Cloudy
6:53 AM 15.1 °F - 10.9 °F 84% 30.16 in 10.0 mi Calm Calm - N/A   Mostly Cloudy
7:53 AM 12.0 °F 1.5 °F 9.0 °F 88% 30.20 in 10.0 mi WNW 6.9 mph - N/A   Partly Cloudy
8:53 AM 15.1 °F 9.4 °F 10.0 °F 80% 30.22 in 10.0 mi WSW 3.5 mph - N/A   Clear
9:53 AM 21.0 °F 12.4 °F 14.0 °F 74% 30.22 in 10.0 mi WNW 6.9 mph - N/A   Clear
10:53 AM 25.0 °F 14.2 °F 15.1 °F 66% 30.23 in 10.0 mi NNW 11.5 mph - N/A   Clear
11:53 AM 28.0 °F 20.8 °F 16.0 °F 61% 30.23 in 10.0 mi WNW 6.9 mph - N/A   Clear
12:53 PM 30.9 °F 21.2 °F 16.0 °F 54% 30.21 in 10.0 mi WNW 12.7 mph - N/A   Clear
1:53 PM 34.0 °F 28.0 °F 16.0 °F 48% 30.18 in 10.0 mi WNW 6.9 mph - N/A   Clear
2:53 PM 34.0 °F 31.0 °F 15.1 °F 46% 30.17 in 10.0 mi Variable 3.5 mph - N/A   Clear
3:53 PM 35.1 °F 31.0 °F 14.0 °F 42% 30.17 in 10.0 mi Variable 4.6 mph - N/A   Partly Cloudy
4:53 PM 30.9 °F 25.2 °F 14.0 °F 50% 30.20 in 10.0 mi East 5.8 mph - N/A   Overcast
5:53 PM 28.0 °F 20.0 °F 14.0 °F 56% 30.22 in 10.0 mi ESE 8.1 mph - N/A   Overcast
6:53 PM 28.0 °F 19.3 °F 14.0 °F 56% 30.25 in 10.0 mi East 9.2 mph - N/A   Overcast
7:53 PM 28.0 °F 18.6 °F 14.0 °F 56% 30.28 in 10.0 mi East 10.4 mph - N/A   Overcast
8:53 PM 27.0 °F 16.1 °F 16.0 °F 63% 30.30 in 10.0 mi ENE 12.7 mph - N/A   Overcast
9:18 PM 24.1 °F 10.6 °F 15.1 °F 69% 30.21 in 2.5 mi ENE 17.3 mph - 0.00 in Snow Light Snow
9:27 PM 23.0 °F 9.6 °F 16.0 °F 74% 30.22 in 2.0 mi ENE 16.1 mph - 0.00 in Snow Light Snow
9:42 PM 21.9 °F 7.8 °F 16.0 °F 78% 30.22 in 3.0 mi ENE 17.3 mph - 0.00 in Snow Light Snow
9:50 PM 21.2 °F 7.8 °F 15.8 °F 80% 30.23 in 1.8 mi ENE 15.0 mph - 0.00 in Snow Light Snow
9:53 PM 21.9 °F 8.2 °F 16.0 °F 78% 30.34 in 1.5 mi ENE 16.1 mph - 0.00 in Snow Light Snow
10:30 PM 19.9 °F 7.9 °F 17.1 °F 89% 30.26 in 0.8 mi East 11.5 mph - 0.00 in Snow Light Snow
10:46 PM 19.9 °F 7.3 °F 17.1 °F 89% 30.28 in 1.2 mi ENE 12.7 mph - 0.00 in Snow Light Snow
10:53 PM 19.9 °F 7.3 °F 17.1 °F 89% 30.38 in 1.2 mi ENE 12.7 mph - 0.00 in Snow Light Snow
11:07 PM 19.0 °F 5.6 °F 16.0 °F 88% 30.28 in 0.8 mi NE 13.8 mph - 0.00 in Snow Light Snow
11:15 PM 19.0 °F 6.8 °F 17.1 °F 92% 30.29 in 0.8 mi ENE 11.5 mph - 0.00 in Snow Light Snow
11:53 PM 19.0 °F 8.2 °F 16.0 °F 88% 30.42 in 0.8 mi East 9.2 mph - 0.00 in Snow Light Snow